period_start,C,m1,H,J0,J1,J2,J3,J4,J5,JA,JB,JC,JD,JJ,JK,JN,#
2014-03-07 00:00:54,0.26,2.61,0.00,18.59,24.30,27.27,6.17,31.50,1029.39,2049.99,2559.88,2636.90,2865.35,348.93,331.98,9.42,0000 0000 0000 0000 000000
2014-03-07 00:01:54,0.31,2.61,0.00,18.59,24.30,27.25,6.43,31.54,1029.40,2049.99,2559.33,2636.37,2865.12,350.46,333.48,9.43,0000 0000 0000 0000 000000
2014-03-07 00:02:54,0.25,2.62,0.00,18.60,24.30,27.23,6.12,31.46,1029.41,2049.99,2559.11,2636.12,2864.66,350.13,333.12,9.43,0000 0000 0000 0000 000000
2014-03-07 00:03:54,0.20,2.62,0.00,18.59,24.30,27.23,6.12,31.50,1029.45,2049.99,2558.68,2635.67,2864.24,349.87,333.65,9.44,0000 0000 0000 0000 000000
2014-03-07 00:04:55,0.32,2.62,0.00,18.59,24.30,27.22,6.21,31.42,1029.59,2049.99,2558.15,2635.25,2863.78,350.46,333.46,9.45,0000 0000 0000 0000 000000
2014-03-07 00:05:55,0.33,2.62,0.00,18.59,24.29,27.23,6.29,31.33,1029.58,2050.00,2557.49,2634.84,2863.28,350.39,333.43,9.45,0000 0000 0000 0000 000000
2014-03-07 00:06:55,0.35,2.62,0.00,18.59,24.29,27.18,6.23,31.33,1029.58,2050.01,2556.93,2634.32,2862.75,349.77,332.84,9.46,0000 0000 0000 0000 000000
2014-03-07 00:07:55,0.37,2.62,0.00,18.59,24.28,27.24,6.18,31.21,1029.61,2050.01,2556.30,2633.98,2862.27,350.30,332.81,9.46,0000 0000 0000 0000 000000
2014-03-07 00:08:56,0.31,2.63,0.00,18.58,24.27,27.25,6.21,31.54,1029.55,2050.01,2555.58,2633.41,2861.80,349.85,332.91,9.47,0000 0000 0000 0000 000000
2014-03-07 00:09:56,0.38,2.63,0.00,18.57,24.27,27.25,6.27,31.58,1029.56,2050.03,2555.05,2633.10,2861.29,349.77,333.05,9.47,0000 0000 0000 0000 000000
2014-03-07 00:10:56,0.29,2.63,0.00,18.57,24.27,27.20,6.16,31.42,1029.46,2050.02,2554.42,2632.54,2860.92,350.47,333.71,9.48,0000 0000 0000 0000 000000
2014-03-07 00:11:56,0.35,2.63,0.00,18.57,24.27,27.18,6.13,31.21,1029.53,2050.02,2554.01,2632.19,2860.38,349.32,332.16,9.49,0000 0000 0000 0000 000000
2014-03-07 00:12:56,0.28,2.63,0.00,18.57,24.27,27.14,6.16,31.50,1029.58,2050.03,2553.40,2631.91,2860.10,348.75,331.89,9.49,0000 0000 0000 0000 000000
2014-03-07 00:13:57,0.24,2.64,0.00,18.57,24.27,27.19,6.29,31.25,1029.58,2050.04,2552.96,2631.42,2859.73,350.32,333.38,9.50,0000 0000 0000 0000 000000
2014-03-07 00:14:57,0.33,2.64,0.00,18.57,24.26,27.14,6.32,31.42,1029.55,2050.05,2552.37,2631.14,2859.27,351.22,334.22,9.50,0000 0000 0000 0000 000000
2014-03-07 00:15:57,0.26,2.64,0.00,18.57,24.26,27.12,6.07,31.42,1029.54,2050.06,2551.88,2630.68,2858.86,349.71,332.79,9.51,0000 0000 0000 0000 000000
2014-03-07 00:16:57,0.37,2.64,0.00,18.57,24.25,27.13,6.30,31.38,1029.49,2050.05,2551.29,2630.24,2858.32,350.36,333.23,9.52,0000 0000 0000 0000 000000
2014-03-07 00:17:57,0.28,2.64,0.00,18.57,24.25,27.17,6.13,31.42,1029.49,2050.07,2550.66,2629.95,2857.98,350.20,333.25,9.52,0000 0000 0000 0000 000000
2014-03-07 00:18:58,0.32,2.65,0.00,18.57,24.25,27.15,6.21,31.38,1029.37,2050.13,2550.19,2629.43,2857.42,349.59,332.76,9.53,0000 0000 0000 0000 000000
2014-03-07 00:19:58,0.40,2.65,0.00,18.57,24.25,27.14,6.15,31.29,1029.34,2050.12,2549.58,2629.10,2857.09,349.61,332.55,9.53,0000 0000 0000 0000 000000
2014-03-07 00:20:58,0.25,2.65,0.00,18.57,24.25,27.18,6.23,31.50,1029.36,2050.07,2549.13,2628.56,2856.51,351.07,334.02,9.54,0000 0000 0000 0000 000000
2014-03-07 00:21:58,0.31,2.65,0.00,18.57,24.25,27.20,6.33,31.38,1029.36,2050.07,2548.50,2628.20,2856.17,350.61,333.43,9.55,0000 0000 0000 0000 000000
2014-03-07 00:22:59,0.29,2.65,0.00,18.57,24.25,27.23,6.20,31.50,1029.36,2050.13,2547.97,2627.82,2855.68,349.88,332.63,9.55,0000 0000 0000 0000 000000
2014-03-07 00:23:59,0.38,2.65,0.00,18.57,24.23,27.22,6.33,31.38,1029.38,2050.09,2547.37,2627.31,2855.25,349.20,332.26,9.56,0000 0000 0000 0000 000000
2014-03-07 00:24:59,0.29,2.66,0.00,18.58,24.22,27.21,6.10,31.42,1029.37,2050.08,2546.77,2627.03,2854.80,350.21,332.76,9.56,0000 0000 0000 0000 000000
2014-03-07 00:25:59,0.30,2.66,0.00,18.59,24.22,27.20,6.13,31.33,1029.40,2050.14,2546.27,2626.53,2854.32,350.32,333.32,9.57,0000 0000 0000 0000 000000
2014-03-07 00:27:00,0.38,2.66,0.00,18.59,24.22,27.19,6.07,31.29,1029.44,2050.30,2545.72,2626.19,2854.01,349.30,332.25,9.57,0000 0000 0000 0000 000000
2014-03-07 00:28:00,0.44,2.66,0.00,18.57,24.22,27.18,6.18,31.46,1029.40,2050.45,2545.21,2625.80,2853.43,349.49,332.89,9.58,0000 0000 0000 0000 000000
2014-03-07 00:29:00,0.45,2.67,0.00,18.57,24.22,27.19,6.35,31.67,1029.42,2050.47,2544.54,2625.30,2852.94,350.37,333.58,9.59,0000 0000 0000 0000 000000
2014-03-07 00:30:00,0.36,2.67,0.00,18.57,24.22,27.19,6.13,31.67,1029.52,2050.37,2543.84,2624.76,2852.36,349.54,332.80,9.59,0000 0000 0000 0000 000000
2014-03-07 00:31:01,0.33,2.67,0.00,18.56,24.22,27.19,6.14,31.58,1029.54,2050.30,2543.18,2624.27,2851.91,350.36,333.00,9.60,0000 0000 0000 0000 000000
2014-03-07 00:32:01,0.31,2.67,0.00,18.57,24.22,27.19,6.42,31.58,1029.60,2050.27,2542.47,2623.83,2851.34,350.86,333.96,9.60,0000 0000 0000 0000 000000
2014-03-07 00:33:01,0.35,2.67,0.00,18.57,24.22,27.18,6.26,31.42,1029.56,2050.24,2541.94,2623.31,2850.96,350.18,332.36,9.61,0000 0000 0000 0000 000000
2014-03-07 00:34:01,0.29,2.68,0.00,18.55,24.20,27.18,6.17,31.46,1029.48,2050.34,2541.36,2623.11,2850.40,350.37,333.42,9.62,0000 0000 0000 0000 000000
2014-03-07 00:35:02,0.36,2.68,0.00,18.55,24.20,27.20,6.22,31.38,1029.45,2050.52,2540.95,2622.83,2850.12,350.03,333.09,9.62,0000 0000 0000 0000 000000
2014-03-07 00:36:02,0.35,2.68,0.00,18.54,24.20,27.18,6.13,31.58,1029.39,2050.58,2540.38,2622.37,2849.63,349.71,332.77,9.63,0000 0000 0000 0000 000000
2014-03-07 00:37:02,0.36,2.68,0.00,18.54,24.20,27.18,6.11,31.42,1029.38,2050.59,2539.90,2622.11,2849.22,349.42,332.50,9.63,0000 0000 0000 0000 000000
2014-03-07 00:38:02,0.28,2.68,0.00,18.54,24.20,27.16,6.18,31.42,1029.37,2050.58,2539.35,2621.62,2848.69,350.44,333.46,9.64,0000 0000 0000 0000 000000
2014-03-07 00:39:03,0.40,2.69,0.00,18.54,24.20,27.17,6.18,31.50,1029.36,2050.57,2538.84,2621.23,2848.25,349.81,332.71,9.64,0000 0000 0000 0000 000000
2014-03-07 00:40:03,0.22,2.69,0.00,18.54,24.20,27.17,6.27,31.46,1029.34,2050.53,2538.30,2620.90,2847.88,349.24,332.34,9.65,0000 0000 0000 0000 000000
2014-03-07 00:41:03,0.23,2.69,0.00,18.55,24.20,27.15,6.38,31.33,1029.39,2050.57,2537.76,2620.36,2847.37,350.98,334.09,9.66,0000 0000 0000 0000 000000
2014-03-07 00:42:03,0.44,2.69,0.00,18.56,24.20,27.18,6.22,31.33,1029.41,2050.72,2537.28,2620.09,2847.03,350.66,333.73,9.66,0000 0000 0000 0000 000000
2014-03-07 00:43:03,0.37,2.69,0.00,18.55,24.19,27.18,6.31,31.46,1029.45,2050.86,2536.73,2619.60,2846.49,351.23,334.23,9.67,0000 0000 0000 0000 000000
2014-03-07 00:44:04,0.52,2.70,0.00,18.54,24.19,27.17,6.13,31.38,1029.37,2050.92,2536.26,2619.22,2846.16,350.01,333.08,9.67,0000 0000 0000 0000 000000
2014-03-07 00:45:04,0.24,2.70,0.00,18.54,24.18,27.16,6.25,31.17,1029.35,2050.93,2535.67,2618.89,2845.65,350.98,334.13,9.68,0000 0000 0000 0000 000000
2014-03-07 00:46:04,0.37,2.70,0.00,18.55,24.18,27.14,6.36,31.38,1029.38,2050.93,2535.17,2618.37,2845.23,350.28,333.31,9.69,0000 0000 0000 0000 000000
2014-03-07 00:47:04,0.30,2.70,0.00,18.55,24.17,27.13,6.24,31.42,1029.40,2050.93,2534.55,2618.08,2844.86,350.29,333.32,9.69,0000 0000 0000 0000 000000
2014-03-07 00:48:04,0.28,2.70,0.00,18.54,24.17,27.13,6.28,31.21,1029.42,2050.93,2534.05,2617.61,2844.34,351.23,334.03,9.70,0000 0000 0000 0000 000000
2014-03-07 00:49:04,0.37,2.71,0.00,18.55,24.17,27.17,6.08,31.25,1029.44,2050.96,2533.42,2617.22,2843.97,348.69,331.81,9.70,0000 0000 0000 0000 000000
2014-03-07 00:50:04,0.30,2.71,0.00,18.56,24.17,27.18,6.24,31.38,1029.38,2050.95,2532.86,2616.83,2843.41,349.57,332.89,9.71,0000 0000 0000 0000 000000
2014-03-07 00:51:05,0.35,2.71,0.00,18.55,24.17,27.18,6.24,31.38,1029.38,2050.97,2532.31,2616.33,2843.14,350.58,333.67,9.71,0000 0000 0000 0000 000000
2014-03-07 00:52:05,0.29,2.71,0.00,18.55,24.17,27.17,6.17,31.33,1029.40,2050.97,2531.83,2616.10,2842.72,350.72,333.71,9.72,0000 0000 0000 0000 000000
2014-03-07 00:53:05,0.26,2.71,0.00,18.56,24.17,27.15,6.18,31.17,1029.38,2050.99,2531.31,2615.60,2842.25,349.66,332.90,9.73,0000 0000 0000 0000 000000
2014-03-07 00:54:05,0.35,2.71,0.00,18.56,24.17,27.15,6.20,31.63,1029.36,2050.97,2530.71,2615.21,2841.76,349.81,333.27,9.73,0000 0000 0000 0000 000000
2014-03-07 00:55:06,0.30,2.72,0.00,18.56,24.17,27.12,6.20,31.38,1029.35,2050.96,2530.21,2614.71,2841.26,351.04,333.89,9.74,0000 0000 0000 0000 000000
2014-03-07 00:56:06,0.33,2.72,0.00,18.55,24.17,27.14,6.31,31.33,1029.35,2050.97,2529.55,2614.26,2840.63,350.32,333.41,9.74,0000 0000 0000 0000 000000
2014-03-07 00:57:06,0.39,2.72,0.00,18.54,24.17,27.12,6.33,31.46,1029.35,2050.96,2529.03,2613.86,2840.23,350.34,333.46,9.75,0000 0000 0000 0000 000000
2014-03-07 00:58:06,0.30,2.72,0.00,18.54,24.16,27.12,6.11,31.33,1029.33,2050.97,2528.40,2613.33,2839.89,349.52,332.57,9.76,0000 0000 0000 0000 000000
2014-03-07 00:59:07,0.35,2.72,0.00,18.55,24.15,27.15,6.22,31.42,1029.33,2050.96,2527.94,2613.07,2839.35,350.83,333.81,9.76,0000 0000 0000 0000 000000
2014-03-07 01:00:07,0.24,2.73,0.00,18.57,24.15,27.12,6.25,31.38,1029.33,2050.98,2527.38,2612.61,2839.07,349.31,332.35,9.77,0000 0000 0000 0000 000000
2014-03-07 01:01:07,0.32,2.73,0.00,18.55,24.15,27.13,6.07,31.42,1029.32,2050.98,2526.93,2612.22,2838.54,349.78,332.80,9.77,0000 0000 0000 0000 000000
2014-03-07 01:02:07,0.31,2.73,0.00,18.54,24.15,27.09,6.24,31.54,1029.32,2050.98,2526.34,2611.90,2838.11,349.53,332.58,9.78,0000 0000 0000 0000 000000
2014-03-07 01:03:07,0.28,2.73,0.00,18.54,24.15,27.07,6.22,31.38,1029.32,2050.97,2525.71,2611.37,2837.52,350.30,333.31,9.79,0000 0000 0000 0000 000000
2014-03-07 01:04:08,0.44,2.73,0.00,18.54,24.15,27.10,6.28,31.50,1029.31,2050.96,2525.18,2611.08,2837.19,349.50,332.60,9.79,0000 0000 0000 0000 000000
2014-03-07 01:05:08,0.20,2.74,0.00,18.54,24.15,27.13,6.36,31.38,1029.34,2050.98,2524.54,2610.55,2836.78,349.83,332.89,9.80,0000 0000 0000 0000 000000
2014-03-07 01:06:08,0.40,2.74,0.00,18.54,24.15,27.15,6.19,31.38,1029.35,2050.98,2523.93,2610.18,2836.28,350.59,333.72,9.80,0000 0000 0000 0000 000000
2014-03-07 01:07:08,0.31,2.74,0.00,18.54,24.15,27.16,6.33,31.46,1029.36,2050.98,2523.32,2609.70,2835.80,350.33,333.19,9.81,0000 0000 0000 0000 000000
2014-03-07 01:08:09,0.39,2.74,0.00,18.54,24.15,27.13,6.09,31.50,1029.33,2050.95,2522.69,2609.26,2835.31,348.40,331.63,9.81,0000 0000 0000 0000 000000
2014-03-07 01:09:09,0.30,2.74,0.00,18.54,24.15,27.12,6.23,31.42,1029.33,2050.95,2522.20,2608.87,2834.88,349.45,332.10,9.82,0000 0000 0000 0000 000000
2014-03-07 01:10:09,0.29,2.75,0.00,18.54,24.14,27.13,6.33,31.50,1029.34,2050.96,2521.56,2608.34,2834.36,350.88,333.86,9.83,0000 0000 0000 0000 000000
2014-03-07 01:11:09,0.41,2.75,0.00,18.54,24.14,27.15,6.02,31.33,1029.35,2050.97,2521.03,2608.05,2833.97,349.10,332.14,9.83,0000 0000 0000 0000 000000
2014-03-07 01:12:10,0.24,2.75,0.00,18.56,24.14,27.13,6.27,31.50,1029.32,2050.98,2520.41,2607.50,2833.40,350.29,333.16,9.84,0000 0000 0000 0000 000000
2014-03-07 01:13:10,0.43,2.75,0.00,18.57,24.14,27.12,6.09,31.58,1029.33,2050.99,2519.87,2607.15,2833.03,350.32,333.44,9.84,0000 0000 0000 0000 000000
2014-03-07 01:14:10,0.28,2.75,0.00,18.55,24.14,27.11,6.09,31.46,1029.36,2050.99,2519.31,2606.67,2832.45,349.54,332.36,9.85,0000 0000 0000 0000 000000
2014-03-07 01:15:10,0.38,2.76,0.00,18.56,24.13,27.04,6.25,31.46,1029.35,2050.99,2518.76,2606.24,2832.10,349.75,332.71,9.86,0000 0000 0000 0000 000000
2014-03-07 01:16:11,0.29,2.76,0.00,18.57,24.12,27.07,6.25,31.17,1029.35,2050.98,2518.26,2605.90,2831.51,350.81,333.73,9.86,0000 0000 0000 0000 000000
2014-03-07 01:17:11,0.31,2.76,0.00,18.57,24.12,27.10,6.30,31.42,1029.33,2050.98,2517.74,2605.39,2831.16,350.72,333.89,9.87,0000 0000 0000 0000 000000
2014-03-07 01:18:11,0.33,2.76,0.00,18.57,24.12,27.11,6.19,31.38,1029.33,2050.97,2517.23,2605.10,2830.66,350.30,332.83,9.87,0000 0000 0000 0000 000000
2014-03-07 01:19:11,0.26,2.76,0.00,18.57,24.12,27.13,6.25,31.50,1029.33,2050.97,2516.58,2604.63,2830.23,349.97,332.98,9.88,0000 0000 0000 0000 000000
2014-03-07 01:20:12,0.36,2.76,0.00,18.57,24.12,27.10,6.33,31.54,1029.33,2050.97,2516.15,2604.24,2829.84,350.64,333.61,9.88,0000 0000 0000 0000 000000
2014-03-07 01:21:12,0.27,2.77,0.00,18.57,24.12,27.07,6.16,31.46,1029.34,2050.99,2515.54,2603.92,2829.33,350.02,333.03,9.89,0000 0000 0000 0000 000000
2014-03-07 01:22:12,0.34,2.77,0.00,18.56,24.12,27.05,6.18,31.46,1029.33,2050.98,2514.95,2603.39,2828.93,349.43,332.46,9.90,0000 0000 0000 0000 000000
2014-03-07 01:23:12,0.35,2.77,0.00,18.55,24.12,27.05,6.25,31.33,1029.34,2050.98,2514.33,2603.04,2828.38,350.45,333.46,9.90,0000 0000 0000 0000 000000
2014-03-07 01:24:12,0.32,2.77,0.00,18.56,24.12,27.05,6.27,31.50,1029.37,2050.99,2513.66,2602.47,2828.12,350.17,333.19,9.91,0000 0000 0000 0000 000000
2014-03-07 01:25:13,0.36,2.77,0.00,18.56,24.12,27.12,6.22,31.63,1029.35,2050.99,2513.18,2602.15,2827.59,350.31,333.31,9.91,0000 0000 0000 0000 000000
2014-03-07 01:26:13,0.28,2.78,0.00,18.56,24.12,27.11,6.11,31.50,1029.35,2050.99,2512.54,2601.72,2827.20,349.90,333.03,9.92,0000 0000 0000 0000 000000
2014-03-07 01:27:13,0.34,2.78,0.00,18.57,24.12,27.11,6.17,31.50,1029.38,2050.99,2512.10,2601.27,2826.73,349.37,332.41,9.93,0000 0000 0000 0000 000000
2014-03-07 01:28:14,0.29,2.78,0.00,18.57,24.12,27.14,6.19,31.50,1029.38,2050.99,2511.47,2601.00,2826.26,349.54,332.46,9.93,0000 0000 0000 0000 000000
2014-03-07 01:29:14,0.30,2.78,0.00,18.57,24.11,27.16,6.26,31.54,1029.41,2050.98,2510.96,2600.44,2825.79,350.81,333.81,9.94,0000 0000 0000 0000 000000
2014-03-07 01:30:14,0.35,2.78,0.00,18.57,24.11,27.16,6.12,31.63,1029.46,2050.99,2510.37,2600.14,2825.30,348.99,332.08,9.94,0000 0000 0000 0000 000000
2014-03-07 01:31:14,0.31,2.79,0.00,18.57,24.11,27.12,6.10,31.67,1029.44,2050.99,2509.80,2599.62,2824.95,350.39,333.80,9.95,0000 0000 0000 0000 000000
2014-03-07 01:32:14,0.33,2.79,0.00,18.57,24.10,27.07,6.28,31.46,1029.38,2050.99,2509.28,2599.22,2824.39,351.06,334.02,9.95,0000 0000 0000 0000 000000
2014-03-07 01:33:15,0.31,2.79,0.00,18.57,24.10,27.08,6.23,31.58,1029.40,2050.99,2508.72,2598.93,2824.08,349.98,333.37,9.96,0000 0000 0000 0000 000000
2014-03-07 01:34:15,0.26,2.79,0.00,18.57,24.10,27.06,6.30,31.54,1029.36,2050.98,2508.22,2598.39,2823.51,350.53,333.27,9.97,0000 0000 0000 0000 000000
2014-03-07 01:35:15,0.38,2.79,0.00,18.57,24.10,27.10,6.24,31.42,1029.37,2050.99,2507.63,2598.09,2823.17,350.32,333.31,9.97,0000 0000 0000 0000 000000
2014-03-07 01:36:15,0.28,2.79,0.00,18.57,24.10,27.10,6.32,31.50,1029.39,2050.99,2507.17,2597.55,2822.66,349.89,332.85,9.98,0000 0000 0000 0000 000000
2014-03-07 01:37:15,0.35,2.80,0.00,18.57,24.10,27.14,6.17,31.42,1029.37,2050.99,2506.53,2597.20,2822.24,350.50,333.26,9.98,0000 0000 0000 0000 000000
2014-03-07 01:38:16,0.31,2.80,0.00,18.57,24.10,27.14,6.32,31.54,1029.34,2050.99,2506.07,2596.89,2821.82,350.66,333.38,9.99,0000 0000 0000 0000 000000
2014-03-07 01:39:16,0.27,2.80,0.00,18.57,24.10,27.11,6.21,31.54,1029.34,2050.99,2505.45,2596.37,2821.32,350.69,333.53,10.00,0000 0000 0000 0000 000000
2014-03-07 01:40:16,0.38,2.80,0.00,18.58,24.10,27.13,6.18,31.46,1029.35,2050.99,2504.96,2596.05,2820.99,350.88,333.81,10.00,0000 0000 0000 0000 000000
2014-03-07 01:41:16,0.25,2.80,0.00,18.58,24.10,27.15,6.15,31.42,1029.33,2050.99,2504.37,2595.46,2820.41,350.06,333.16,10.01,0000 0000 0000 0000 000000
2014-03-07 01:42:16,0.43,2.81,0.00,18.59,24.10,27.12,6.13,31.21,1029.32,2050.99,2503.74,2595.16,2820.11,351.06,334.06,10.01,0000 0000 0000 0000 000000
2014-03-07 01:43:16,0.27,2.81,0.00,18.59,24.10,27.11,6.23,31.46,1029.33,2050.99,2503.26,2594.83,2819.61,349.28,332.29,10.02,0000 0000 0000 0000 000000
2014-03-07 01:44:17,0.28,2.81,0.00,18.59,24.10,27.14,6.04,31.42,1029.31,2050.99,2502.80,2594.32,2819.22,348.80,331.82,10.02,0000 0000 0000 0000 000000
2014-03-07 01:45:17,0.32,2.81,0.00,18.59,24.10,27.08,6.34,31.63,1029.33,2050.99,2502.29,2594.05,2818.83,350.99,333.91,10.03,0000 0000 0000 0000 000000
2014-03-07 01:46:17,0.26,2.81,0.00,18.59,24.10,27.05,6.39,31.46,1029.35,2050.99,2501.75,2593.51,2818.31,350.66,333.60,10.04,0000 0000 0000 0000 000000
2014-03-07 01:47:17,0.37,2.82,0.00,18.59,24.10,27.10,6.16,31.54,1029.33,2050.99,2501.24,2593.18,2817.97,348.95,331.85,10.04,0000 0000 0000 0000 000000
2014-03-07 01:48:18,0.25,2.82,0.00,18.59,24.10,27.09,6.26,31.46,1029.31,2050.99,2500.72,2592.90,2817.42,351.38,334.28,10.05,0000 0000 0000 0000 000000
2014-03-07 01:49:18,0.30,2.82,0.00,18.59,24.10,27.11,6.13,31.54,1029.31,2050.99,2500.21,2592.37,2817.10,349.97,332.80,10.05,0000 0000 0000 0000 000000
2014-03-07 01:50:18,0.34,2.82,0.00,18.59,24.10,27.06,6.33,31.58,1029.32,2050.99,2499.61,2592.01,2816.53,350.75,334.02,10.06,0000 0000 0000 0000 000000
2014-03-07 01:51:18,0.33,2.82,0.00,18.59,24.10,27.07,6.20,31.58,1029.35,2050.99,2499.13,2591.44,2816.19,350.32,333.09,10.07,0000 0000 0000 0000 000000
2014-03-07 01:52:18,0.34,2.82,0.00,18.60,24.10,27.06,6.17,31.42,1029.35,2050.99,2498.50,2591.16,2815.83,349.81,332.90,10.07,0000 0000 0000 0000 000000
2014-03-07 01:53:19,0.28,2.83,0.00,18.59,24.10,27.06,6.21,31.42,1029.35,2050.99,2498.06,2590.78,2815.32,350.94,333.76,10.08,0000 0000 0000 0000 000000
2014-03-07 01:54:19,0.29,2.83,0.00,18.59,24.09,27.07,6.12,31.58,1029.33,2050.99,2497.46,2590.30,2815.04,349.48,332.47,10.08,0000 0000 0000 0000 000000
2014-03-07 01:55:19,0.33,2.83,0.00,18.60,24.09,27.10,6.24,31.71,1029.32,2050.99,2497.04,2590.07,2814.48,350.61,332.38,10.09,0000 0000 0000 0000 000000
2014-03-07 01:56:19,0.26,2.83,0.00,18.60,24.09,27.09,6.09,31.46,1029.33,2050.99,2496.43,2589.52,2814.15,348.75,331.78,10.10,0000 0000 0000 0000 000000
2014-03-07 01:57:20,0.35,2.83,0.00,18.60,24.09,27.11,6.33,31.46,1029.33,2050.99,2496.01,2589.17,2813.64,350.55,333.48,10.10,0000 0000 0000 0000 000000
2014-03-07 01:58:20,0.27,2.84,0.00,18.61,24.09,27.15,6.22,31.58,1029.33,2050.99,2495.42,2588.74,2813.23,349.33,332.32,10.11,0000 0000 0000 0000 000000
2014-03-07 01:59:20,0.33,2.84,0.00,18.61,24.09,27.12,6.34,31.50,1029.32,2050.99,2494.92,2588.28,2812.82,350.38,333.49,10.11,0000 0000 0000 0000 000000
2014-03-07 02:00:20,0.31,2.84,0.00,18.62,24.09,27.09,6.23,31.54,1029.32,2050.99,2494.34,2588.02,2812.32,349.14,331.99,10.12,0000 0000 0000 0000 000000
2014-03-07 02:01:21,0.31,2.84,0.00,18.62,24.09,27.13,6.26,31.54,1029.32,2050.99,2493.87,2587.46,2812.02,350.21,333.24,10.12,0000 0000 0000 0000 000000
2014-03-07 02:02:21,0.32,2.84,0.00,18.62,24.08,27.13,6.22,31.46,1029.32,2050.99,2493.34,2587.15,2811.48,350.57,333.52,10.13,0000 0000 0000 0000 000000
2014-03-07 02:03:21,0.31,2.84,0.00,18.63,24.09,27.06,6.08,31.50,1029.31,2050.99,2492.80,2586.72,2811.13,350.09,333.13,10.14,0000 0000 0000 0000 000000
2014-03-07 02:04:21,0.30,2.85,0.00,18.63,24.08,27.10,6.31,31.54,1029.32,2050.99,2492.28,2586.26,2810.57,350.85,333.74,10.14,0000 0000 0000 0000 000000
2014-03-07 02:05:22,0.36,2.85,0.00,18.63,24.08,27.10,6.32,31.42,1029.32,2050.99,2491.74,2585.90,2810.17,351.56,334.41,10.15,0000 0000 0000 0000 000000
2014-03-07 02:06:22,0.30,2.85,0.00,18.64,24.08,27.11,6.23,31.33,1029.32,2050.99,2491.14,2585.38,2809.56,350.63,333.51,10.15,0000 0000 0000 0000 000000
2014-03-07 02:07:22,0.38,2.85,0.00,18.64,24.08,27.12,6.13,31.46,1029.33,2050.99,2490.44,2584.96,2809.15,350.12,332.80,10.16,0000 0000 0000 0000 000000
2014-03-07 02:08:22,0.38,2.85,0.00,18.64,24.08,27.13,6.26,31.33,1029.35,2050.99,2489.71,2584.38,2808.52,350.75,333.64,10.17,0000 0000 0000 0000 000000
2014-03-07 02:09:23,0.42,2.86,0.00,18.64,24.08,27.14,6.13,31.63,1029.39,2050.99,2489.07,2583.96,2808.09,350.16,333.30,10.17,0000 0000 0000 0000 000000
2014-03-07 02:10:23,0.36,2.86,0.00,18.64,24.08,27.11,6.15,31.63,1029.41,2050.99,2488.39,2583.38,2807.47,349.16,332.64,10.18,0000 0000 0000 0000 000000
2014-03-07 02:11:24,0.43,2.86,0.00,18.65,24.07,27.11,6.29,31.46,1029.41,2050.99,2487.68,2583.04,2807.05,350.23,333.41,10.18,0000 0000 0000 0000 000000
2014-03-07 02:12:24,0.34,2.86,0.00,18.64,24.07,27.10,6.32,31.50,1029.38,2050.99,2487.14,2582.49,2806.44,350.95,334.15,10.19,0000 0000 0000 0000 000000
2014-03-07 02:13:24,0.38,2.87,0.00,18.66,24.07,27.11,6.23,31.50,1029.38,2050.99,2486.47,2582.15,2806.04,349.60,332.53,10.19,0000 0000 0000 0000 000000
2014-03-07 02:14:24,0.35,2.87,0.00,18.66,24.07,27.08,6.25,31.46,1029.42,2050.99,2485.88,2581.57,2805.43,350.86,333.74,10.20,0000 0000 0000 0000 000000
2014-03-07 02:15:25,0.37,2.87,0.00,18.66,24.07,27.11,6.16,31.38,1029.49,2050.99,2485.32,2581.19,2805.06,350.46,333.60,10.21,0000 0000 0000 0000 000000
2014-03-07 02:16:25,0.34,2.87,0.00,18.67,24.07,27.12,6.23,31.46,1029.45,2050.99,2484.66,2580.69,2804.47,350.07,333.17,10.21,0000 0000 0000 0000 000000
2014-03-07 02:17:25,0.36,2.87,0.00,18.67,24.07,27.10,6.14,31.54,1029.45,2050.99,2484.06,2580.25,2804.08,349.52,332.75,10.22,0000 0000 0000 0000 000000
2014-03-07 02:18:25,0.34,2.88,0.00,18.67,24.07,27.09,6.27,31.92,1029.47,2050.99,2483.40,2579.84,2803.50,351.25,333.89,10.22,0000 0000 0000 0000 000000
2014-03-07 02:19:26,0.36,2.88,0.00,18.67,24.07,27.12,6.14,31.75,1029.53,2050.99,2482.88,2579.31,2803.13,349.15,332.37,10.23,0000 0000 0000 0000 000000
2014-03-07 02:20:26,0.35,2.88,0.00,18.67,24.07,27.08,6.17,31.96,1029.56,2050.99,2482.32,2579.02,2802.55,350.23,333.27,10.24,0000 0000 0000 0000 000000
2014-03-07 02:21:26,0.33,2.88,0.00,18.68,24.07,27.09,6.36,31.83,1029.51,2050.99,2481.73,2578.45,2802.14,350.24,332.99,10.24,0000 0000 0000 0000 000000
2014-03-07 02:22:26,0.35,2.88,0.00,18.69,24.07,27.14,6.27,31.83,1029.54,2050.99,2481.23,2578.14,2801.53,349.66,332.61,10.25,0000 0000 0000 0000 000000
2014-03-07 02:23:27,0.34,2.89,0.00,18.68,24.07,27.16,6.16,31.83,1029.47,2050.99,2480.56,2577.59,2801.19,349.48,332.42,10.25,0000 0000 0000 0000 000000
2014-03-07 02:24:27,0.34,2.89,0.00,18.69,24.07,27.13,6.22,31.75,1029.42,2050.99,2480.10,2577.21,2800.74,350.06,333.04,10.26,0000 0000 0000 0000 000000
2014-03-07 02:25:27,0.31,2.89,0.00,18.70,24.07,27.14,6.11,31.58,1029.40,2050.99,2479.46,2576.78,2800.26,349.63,332.52,10.27,0000 0000 0000 0000 000000
2014-03-07 02:26:28,0.35,2.89,0.00,18.70,24.07,27.12,6.24,31.83,1029.35,2050.99,2478.84,2576.29,2799.76,350.01,332.87,10.27,0000 0000 0000 0000 000000
2014-03-07 02:27:28,0.35,2.89,0.00,18.69,24.07,27.12,6.28,31.88,1029.36,2050.99,2478.29,2575.93,2799.28,350.27,332.89,10.28,0000 0000 0000 0000 000000
2014-03-07 02:28:28,0.33,2.90,0.00,18.69,24.07,27.11,6.15,31.79,1029.34,2050.99,2477.68,2575.37,2798.76,349.71,332.79,10.28,0000 0000 0000 0000 000000
2014-03-07 02:29:29,0.37,2.90,0.00,18.69,24.07,27.12,6.20,31.88,1029.32,2050.99,2477.21,2575.10,2798.28,349.92,332.77,10.29,0000 0000 0000 0000 000000
2014-03-07 02:30:29,0.31,2.90,0.00,18.69,24.07,27.10,6.22,31.88,1029.35,2050.99,2476.58,2574.56,2797.85,349.75,332.98,10.29,0000 0000 0000 0000 000000
2014-03-07 02:31:29,0.33,2.90,0.00,18.69,24.07,27.09,6.23,31.71,1029.33,2050.99,2476.12,2574.20,2797.33,350.20,333.05,10.30,0000 0000 0000 0000 000000
2014-03-07 02:32:29,0.32,2.90,0.00,18.72,24.07,27.11,6.22,31.79,1029.32,2050.99,2475.49,2573.82,2796.94,350.25,333.08,10.31,0000 0000 0000 0000 000000
2014-03-07 02:33:30,0.30,2.91,0.00,18.72,24.08,27.09,6.24,31.50,1029.32,2050.99,2475.02,2573.31,2796.37,350.33,333.14,10.31,0000 0000 0000 0000 000000
2014-03-07 02:34:30,0.36,2.91,0.00,18.72,24.08,27.09,6.20,31.58,1029.32,2050.99,2474.40,2573.02,2796.10,349.68,332.52,10.32,0000 0000 0000 0000 000000
2014-03-07 02:35:30,0.29,2.91,0.00,18.72,24.08,27.08,6.05,31.46,1029.33,2050.99,2473.84,2572.48,2795.59,349.85,332.48,10.32,0000 0000 0000 0000 000000
2014-03-07 02:36:30,0.34,2.91,0.00,18.72,24.08,27.06,6.15,31.63,1029.34,2050.99,2473.29,2572.17,2795.19,350.01,332.45,10.33,0000 0000 0000 0000 000000
2014-03-07 02:37:31,0.34,2.91,0.00,18.73,24.08,27.11,6.15,31.63,1029.33,2050.99,2472.62,2571.66,2794.67,349.93,332.26,10.34,0000 0000 0000 0000 000000